Tracking 29892 objects as of 21-Nov-2024
HD Live streaming from Space Station
objects crossing your sky now

STARLINK-4496

Track STARLINK-4496 now!
10-day predictions
STARLINK-4496 is classified as:


NORAD ID: 53412
Int'l Code: 2022-097AA
Perigee: 545.7 km
Apogee: 547.9 km
Inclination: 53.2 °
Period: 95.4 minutes
Semi major axis: 6917 km
RCS: Unknown
Launch date: August 10, 2022
Source: United States (US)
Launch site: AIR FORCE EASTERN TEST RANGE (AFETR)
Your satellite tracking list
Your tracking list is empty




NASA's NSSDC Master Catalog

Two Line Element Set (TLE):
1 53412U 22097AA  24325.75086147 -.00002553  00000-0 -14231-3 0  9990
2 53412  53.2160  81.7106 0001576 107.5476 252.5688 15.08859924127104
Source of the keplerian elements: AFSPC